Home > Time Zones > World Clock > Weather > Iran > Kerman > Past weeks

Flag for Iran Weather past 2 weeks in Kerman, Iran

Now
70 °F

Broken clouds.


Feels Like: 70 °F
Forecast: 52 / 67 °F
Wind: 12 mph from West

Location: Kerman Airport

Current Time: Apr 1, 2015 at 3:10:02 PM

Latest Report: Apr 1, 2015 at 2:30 PM


Visibility: N/A

Pressure: 29.95 "Hg

Humidity: 17%

Dew point: 23 °F

Location of KermanLocation

Historic Weather in Kerman — Graph

°F

Kerman temperature yesterday

Maximum temperature yesterday: 75 °F (at 11:30 AM)
Minimum temperature yesterday: 55 °F (at 3:30 AM)
Average temperature yesterday: 65 °F

Past Weeks' High & Low Weather Summary

 TemperatureHumidityPressure
High77 °F (Mar 29, 5:30 PM)100% (Mar 22, 4:30 AM)30.30 "Hg (Mar 22, 4:30 AM)
Low37 °F (Mar 29, 6:30 AM)4% (Mar 29, 4:30 PM)29.95 "Hg (Mar 31, 5:30 PM)
Average58 °F54%30.15 "Hg
* Reported Mar 17 12:30 PM — Apr 1 1:30 PM, Kerman, Weather by CustomWeather, © 2015

Note: Actual official high and low records may vary slightly from our data, if they occured in-between our weather recording intervals... More about our weather records

Advertising

Kerman weather history for previous 24 hours

 ConditionsComfort  
Time TempWeatherWind HumidityBarometerVisibility
1:30 PM
Wed, Apr 1
72 °FSunny.9 mph19%29.98 "Hg10 mi
12:30 PM70 °FSunny.7 mph18%30.01 "Hg10 mi
11:30 AM68 °FSunny.9 mph24%30.01 "Hg10 mi
10:30 AM66 °FSunny.9 mph24%30.04 "Hg10 mi
9:30 AM64 °FPartly sunny.5 mph30%30.04 "HgN/A
8:30 AM59 °FPartly sunny.7 mph39%30.01 "HgN/A
7:30 AM57 °FPassing clouds.7 mph41%30.01 "Hg5 mi
6:30 AM59 °FPassing clouds.12 mph39%29.98 "Hg4 mi
5:30 AM61 °FPartly cloudy.14 mph39%29.95 "HgN/A
4:30 AM61 °FPartly cloudy.14 mph39%29.95 "HgN/A
3:30 AM61 °FPartly cloudy.21 mph42%29.95 "HgN/A
2:30 AM61 °FPartly cloudy.18 mph48%29.95 "HgN/A
1:30 AM63 °FPartly cloudy.18 mph49%29.95 "Hg5 mi
12:30 AM63 °FPartly cloudy.16 mph52%29.98 "HgN/A
11:30 PM
Tue, Mar 31
63 °FPartly cloudy.18 mph59%29.98 "HgN/A
10:30 PM64 °FPartly cloudy.14 mph56%29.98 "HgN/A
9:30 PM64 °FMostly cloudy.12 mph52%29.98 "HgN/A
8:30 PM64 °FPartly cloudy.12 mph56%29.98 "HgN/A
7:30 PM63 °FMore clouds than sun.14 mph59%29.95 "Hg4 mi
6:30 PM66 °FSandstorm.23 mph46%29.98 "Hg2 mi
5:30 PM68 °FSandstorm.23 mph43%29.95 "Hg3 mi
5:00 PM68 °FBroken clouds.18 mph43%29.98 "Hg4 mi
4:30 PM70 °FPartly sunny.14 mph40%29.98 "Hg4 mi
4:00 PM68 °FPartly sunny.14 mph43%29.98 "Hg4 mi
3:30 PM68 °FPartly sunny.16 mph43%30.01 "Hg4 mi
Weather by CustomWeather, © 2015

See weather overviewHow to use our weather pages